Overview Statistics Trail Chart Weather Telemetry Raw packets
 

This is the latest recevied weather packets stored in our database for station/object 4S6DRJ-13. If no packets are shown the sender has not sent any weather packets the latest 10 day(s).

<< 496 497 498 499 500 501 502 >>
Time Temp. Humidity Pressure Rain* Wind** Luminosity Snow
1787692858 26.67° C 90% 1010.2 hPa 0 mm 0.89 m/s, 238° 0 W/m² -
1787692797 26.67° C 90% 1010.2 hPa 0 mm 1.34 m/s, 244° 0 W/m² -
1787692736 26.67° C 90% 1010.2 hPa 0 mm 1.79 m/s, 287° 0 W/m² -
1787692674 26.67° C 90% 1010 hPa 0 mm 0.89 m/s, 171° 0 W/m² -
1787692614 26.67° C 90% 1010 hPa 0 mm 0.89 m/s, 258° 0 W/m² -
1787692552 26.67° C 90% 1010 hPa 0 mm 2.24 m/s, 225° 0 W/m² -
1787692492 26.67° C 90% 1009.8 hPa 0 mm 0.45 m/s, 235° 0 W/m² -
1787692431 26.67° C 90% 1010.1 hPa 0 mm 1.34 m/s, 260° 0 W/m² -
1787692369 26.67° C 90% 1010 hPa 0 mm 1.79 m/s, 229° 0 W/m² -
1787692309 26.67° C 90% 1010.1 hPa 0 mm 0.89 m/s, 222° 0 W/m² -
1787692248 26.67° C 90% 1010 hPa 0 mm 1.34 m/s, 180° 0 W/m² -
1787692186 26.67° C 90% 1010 hPa 0 mm 0.45 m/s, 199° 0 W/m² -
1787692125 26.67° C 90% 1010.1 hPa 0 mm 0.45 m/s, 222° 0 W/m² -
1787692064 26.67° C 90% 1010.3 hPa 0 mm 1.79 m/s, 217° 0 W/m² -
1787692004 26.67° C 90% 1009.9 hPa 0 mm 1.34 m/s, 189° 0 W/m² -
1787691943 26.67° C 90% 1010.1 hPa 0 mm 1.34 m/s, 221° 0 W/m² -
1787691881 26.67° C 90% 1010.1 hPa 0.25 mm 0.89 m/s, 86° 0 W/m² -
1787691820 26.67° C 90% 1009.9 hPa 0.25 mm 0.89 m/s, 277° 0 W/m² -
1787691760 26.67° C 90% 1010.1 hPa 0.25 mm 1.34 m/s, 235° 0 W/m² -
1787691699 26.67° C 90% 1010.1 hPa 0.25 mm 1.34 m/s, 236° 0 W/m² -
1787691638 26.67° C 91% 1010 hPa 0.25 mm 0.89 m/s, 231° 0 W/m² -
1787691576 26.67° C 91% 1010 hPa 0.25 mm 0.89 m/s, 250° 0 W/m² -
1787691515 26.67° C 91% 1010.2 hPa 0.25 mm 1.79 m/s, 154° 0 W/m² -
1787691455 26.67° C 91% 1010.1 hPa 0.25 mm 3.13 m/s, 225° 0 W/m² -
1787691394 26.67° C 91% 1010.3 hPa 0.25 mm 1.79 m/s, 261° 0 W/m² -

* Rain latest hour (hover to see other rain measurements)
** Current wind speed in m/s (hover to see current wind gust speed)